TimeEDT,TemperatureF,Dew PointF,Humidity,Sea Level PressureIn,VisibilityMPH,Wind Direction,Wind SpeedMPH,Gust SpeedMPH,PrecipitationIn,Events,Conditions,WindDirDegrees,DateUTC
12:53 AM,63.0,50.0,63,30.06,10.0,SW,8.1,-,N/A,,Clear,220,2013-05-15 04:53:00
1:53 AM,63.0,52.0,67,30.05,10.0,SW,8.1,-,N/A,,Clear,220,2013-05-15 05:53:00
2:53 AM,63.0,53.1,70,30.04,10.0,WSW,9.2,-,N/A,,Clear,240,2013-05-15 06:53:00
3:53 AM,63.0,53.1,70,30.03,10.0,SW,10.4,-,N/A,,Clear,230,2013-05-15 07:53:00
4:53 AM,61.0,54.0,78,30.03,10.0,SW,11.5,-,N/A,,Clear,230,2013-05-15 08:53:00
5:53 AM,60.1,54.0,80,30.04,10.0,WSW,4.6,-,N/A,,Clear,250,2013-05-15 09:53:00
6:53 AM,59.0,54.0,83,30.06,10.0,Calm,Calm,-,N/A,,Clear,0,2013-05-15 10:53:00
7:53 AM,63.0,55.9,78,30.07,10.0,SW,4.6,-,N/A,,Clear,230,2013-05-15 11:53:00
8:53 AM,66.9,55.9,68,30.08,10.0,SW,5.8,-,N/A,,Clear,230,2013-05-15 12:53:00
9:53 AM,72.0,57.0,59,30.08,10.0,WSW,4.6,-,N/A,,Clear,240,2013-05-15 13:53:00
10:53 AM,78.1,57.9,50,30.07,10.0,SW,5.8,-,N/A,,Clear,220,2013-05-15 14:53:00
11:53 AM,81.0,57.9,45,30.06,10.0,South,11.5,-,N/A,,Clear,190,2013-05-15 15:53:00
12:53 PM,84.0,57.0,40,30.04,10.0,South,9.2,-,N/A,,Clear,180,2013-05-15 16:53:00
1:53 PM,86.0,57.9,38,30.01,10.0,Variable,6.9,-,N/A,,Clear,0,2013-05-15 17:53:00
2:53 PM,86.0,57.0,37,30.00,10.0,SSW,12.7,20.7,N/A,,Clear,200,2013-05-15 18:53:00
3:53 PM,87.1,57.0,36,29.97,10.0,SW,12.7,-,N/A,,Clear,230,2013-05-15 19:53:00
4:53 PM,87.1,55.9,35,29.96,10.0,SSW,15.0,-,N/A,,Clear,210,2013-05-15 20:53:00
5:53 PM,86.0,57.0,37,29.94,10.0,SW,15.0,21.9,N/A,,Clear,220,2013-05-15 21:53:00
6:53 PM,84.9,57.0,38,29.93,10.0,SW,13.8,-,N/A,,Clear,220,2013-05-15 22:53:00
7:53 PM,82.0,57.9,44,29.94,10.0,SW,12.7,20.7,N/A,,Clear,220,2013-05-15 23:53:00
8:53 PM,79.0,57.0,47,29.94,10.0,SW,10.4,-,N/A,,Clear,220,2013-05-16 00:53:00
9:53 PM,77.0,55.0,47,29.95,10.0,SW,9.2,-,N/A,,Clear,230,2013-05-16 01:53:00
10:53 PM,75.0,55.0,50,29.96,10.0,SW,11.5,-,N/A,,Clear,230,2013-05-16 02:53:00
11:53 PM,72.0,55.0,55,29.96,10.0,West,6.9,-,N/A,,Clear,260,2013-05-16 03:53:00